,,,PA_Meas_PMT16A,,PR_Meas_QMR101_102,,RH_Meas_QMH101,,SR_Meas_QMS101,,TA_Meas_QMH101,,GenWind,,GenWind,
date,time,status,PA,status,PR,status,RH,status,SR,status,TA,status,DirAvg,status,SpdAvg,
2014-05-28, 00:00:04,VALID,1010.27,VALID,0,INVALID,109.399,VALID,0,VALID,23.4407,VALID,223,VALID,0,
2014-05-28, 00:01:04,VALID,1010.27,VALID,0,INVALID,109.376,VALID,0,VALID,23.4407,VALID,223,VALID,0,
2014-05-28, 00:02:04,VALID,1010.24,VALID,0,INVALID,109.361,VALID,0.112112,VALID,23.4425,VALID,223,VALID,0,
2014-05-28, 00:03:04,VALID,1010.25,VALID,0,INVALID,109.399,VALID,0,VALID,23.4017,VALID,223,VALID,0,
2014-05-28, 00:04:04,VALID,1010.24,VALID,0,INVALID,109.391,VALID,0,VALID,23.4017,VALID,223,VALID,0,
2014-05-28, 00:05:04,VALID,1010.21,VALID,0,INVALID,109.407,VALID,0,VALID,23.4017,VALID,223,VALID,0,
2014-05-28, 00:06:04,VALID,1010.18,VALID,0,INVALID,109.376,VALID,0,VALID,23.3823,VALID,223,VALID,0,
2014-05-28, 00:07:04,VALID,1010.17,VALID,0,INVALID,109.399,VALID,0,VALID,23.3628,VALID,223,VALID,0,
2014-05-28, 00:08:04,VALID,1010.13,VALID,0,INVALID,109.384,VALID,0,VALID,23.3628,VALID,223,VALID,0,
2014-05-28, 00:09:04,VALID,1010.15,VALID,0,INVALID,109.407,VALID,0,VALID,23.3238,VALID,223,VALID,0,
2014-05-28, 00:10:04,VALID,1010.15,VALID,0,INVALID,109.43,VALID,0,VALID,23.3238,VALID,223,VALID,0,
2014-05-28, 00:11:04,VALID,1010.13,VALID,0,INVALID,109.407,VALID,0,VALID,23.322,VALID,223,VALID,0,
2014-05-28, 00:12:04,VALID,1010.15,VALID,0,INVALID,109.353,VALID,0,VALID,23.3433,VALID,223,VALID,0,
2014-05-28, 00:13:04,VALID,1010.15,VALID,0,INVALID,109.323,VALID,0,VALID,23.384,VALID,223,VALID,0,
2014-05-28, 00:14:04,VALID,1010.12,VALID,0,INVALID,109.33,VALID,0,VALID,23.3433,VALID,223,VALID,0,
2014-05-28, 00:15:04,VALID,1010.1,VALID,0,INVALID,109.308,VALID,0,VALID,23.3451,VALID,223,VALID,0,
2014-05-28, 00:16:04,VALID,1010.09,VALID,0,INVALID,109.292,VALID,0,VALID,23.3238,VALID,223,VALID,0,
2014-05-28, 00:17:04,VALID,1010.07,VALID,0,INVALID,109.33,VALID,0,VALID,23.3238,VALID,223,VALID,0,
2014-05-28, 00:18:04,VALID,1010.05,VALID,0,INVALID,109.33,VALID,0.112112,VALID,23.3043,VALID,223,VALID,0,
2014-05-28, 00:19:04,VALID,1010.02,VALID,0,INVALID,109.346,VALID,0,VALID,23.2848,VALID,223,VALID,0,
2014-05-28, 00:20:04,VALID,1009.99,VALID,0,INVALID,109.346,VALID,0.112112,VALID,23.2848,VALID,223,VALID,0,
2014-05-28, 00:21:04,VALID,1009.99,VALID,0,INVALID,109.323,VALID,0,VALID,23.2848,VALID,223,VALID,0,
2014-05-28, 00:22:04,VALID,1009.97,VALID,0,INVALID,109.315,VALID,0,VALID,23.2848,VALID,223,VALID,0,
2014-05-28, 00:23:04,VALID,1009.94,VALID,0,INVALID,109.3,VALID,0,VALID,23.2866,VALID,223,VALID,0,
2014-05-28, 00:24:04,VALID,1009.92,VALID,0,INVALID,109.254,VALID,0,VALID,23.2848,VALID,223,VALID,0,
2014-05-28, 00:25:04,VALID,1009.91,VALID,0,INVALID,109.269,VALID,0,VALID,23.2848,VALID,223,VALID,0,
2014-05-28, 00:26:04,VALID,1009.9,VALID,0,INVALID,109.239,VALID,0,VALID,23.2848,VALID,223,VALID,0,
2014-05-28, 00:27:04,VALID,1009.87,VALID,0,INVALID,109.193,VALID,0,VALID,23.3043,VALID,223,VALID,0,
2014-05-28, 00:28:04,VALID,1009.9,VALID,0,INVALID,109.178,VALID,0.112112,VALID,23.3043,VALID,223,VALID,0,
2014-05-28, 00:29:04,VALID,1009.89,VALID,0,INVALID,109.201,VALID,0,VALID,23.3043,VALID,223,VALID,0,
2014-05-28, 00:30:04,VALID,1009.86,VALID,0,INVALID,109.17,VALID,0,VALID,23.3043,VALID,223,VALID,0,
2014-05-28, 00:31:04,VALID,1009.87,VALID,0,INVALID,109.125,VALID,0,VALID,23.3043,VALID,223,VALID,0,
2014-05-28, 00:32:04,VALID,1009.85,VALID,0,INVALID,109.155,VALID,0,VALID,23.3256,VALID,223,VALID,0,
2014-05-28, 00:33:04,VALID,1009.9,VALID,0,INVALID,109.178,VALID,0,VALID,23.3043,VALID,223,VALID,0,
2014-05-28, 00:34:04,VALID,1009.87,VALID,0,INVALID,109.17,VALID,0,VALID,23.3043,VALID,223,VALID,0,
2014-05-28, 00:35:04,VALID,1009.87,VALID,0,INVALID,109.125,VALID,0,VALID,23.3043,VALID,223,VALID,0,
2014-05-28, 00:36:04,VALID,1009.84,VALID,0,INVALID,109.109,VALID,0,VALID,23.3043,VALID,223,VALID,0,
2014-05-28, 00:37:04,VALID,1009.81,VALID,0,INVALID,109.086,VALID,0,VALID,23.3238,VALID,223,VALID,0,
2014-05-28, 00:38:04,VALID,1009.82,VALID,0,INVALID,109.041,VALID,0,VALID,23.3451,VALID,223,VALID,0,
2014-05-28, 00:39:04,VALID,1009.8,VALID,0,INVALID,109.033,VALID,0,VALID,23.3451,VALID,223,VALID,0,
2014-05-28, 00:40:04,VALID,1009.79,VALID,0,INVALID,109.041,VALID,0,VALID,23.3238,VALID,223,VALID,0,
2014-05-28, 00:41:04,VALID,1009.81,VALID,0,INVALID,109.064,VALID,0,VALID,23.3256,VALID,223,VALID,0,
2014-05-28, 00:42:04,VALID,1009.82,VALID,0,INVALID,109.056,VALID,0,VALID,23.3043,VALID,223,VALID,0,
2014-05-28, 00:43:04,VALID,1009.79,VALID,0,INVALID,109.086,VALID,0,VALID,23.2848,VALID,223,VALID,0,
2014-05-28, 00:44:04,VALID,1009.85,VALID,0,INVALID,109.048,VALID,0,VALID,23.3256,VALID,223,VALID,0,
2014-05-28, 00:45:04,VALID,1009.84,VALID,0,INVALID,109.01,VALID,0,VALID,23.3061,VALID,223,VALID,0,
2014-05-28, 00:46:04,VALID,1009.86,VALID,0,INVALID,109.025,VALID,0,VALID,23.3256,VALID,223,VALID,0,
2014-05-28, 00:47:04,VALID,1009.85,VALID,0,VALID,104,VALID,0,VALID,23.3043,VALID,223,VALID,0,
2014-05-28, 00:48:04,VALID,1009.86,VALID,0,VALID,104,VALID,0,VALID,23.3043,VALID,223,VALID,0,
2014-05-28, 00:49:04,VALID,1009.84,VALID,0,VALID,104,VALID,0,VALID,23.3043,VALID,223,VALID,0,
2014-05-28, 00:50:04,VALID,1009.86,VALID,0,VALID,104,VALID,0,VALID,23.2848,VALID,223,VALID,0,
2014-05-28, 00:51:04,VALID,1009.86,VALID,0,VALID,104,VALID,0,VALID,23.2848,VALID,223,VALID,0,
2014-05-28, 00:52:04,VALID,1009.87,VALID,0,VALID,104,VALID,0,VALID,23.2848,VALID,223,VALID,0,
2014-05-28, 00:53:04,VALID,1009.9,VALID,0,VALID,104,VALID,0,VALID,23.2848,VALID,223,VALID,0,
2014-05-28, 00:54:04,VALID,1009.9,VALID,0,VALID,104,VALID,0,VALID,23.2654,VALID,223,VALID,0,
2014-05-28, 00:55:04,VALID,1009.94,VALID,0,VALID,104,VALID,0,VALID,23.2848,VALID,223,VALID,0,
2014-05-28, 00:56:04,VALID,1009.93,VALID,0,VALID,104,VALID,0,VALID,23.2848,VALID,223,VALID,0,
2014-05-28, 00:57:04,VALID,1009.93,VALID,0,VALID,104,VALID,0,VALID,23.3043,VALID,223,VALID,0,
2014-05-28, 00:58:04,VALID,1009.94,VALID,0,VALID,104,VALID,0.112112,VALID,23.2848,VALID,223,VALID,0,
2014-05-28, 00:59:04,VALID,1009.92,VALID,0,VALID,104,VALID,0,VALID,23.3043,VALID,223,VALID,0,
2014-05-28, 01:00:04,VALID,1009.92,VALID,0,VALID,104,VALID,0,VALID,23.3061,VALID,223,VALID,0,
2014-05-28, 01:01:04,VALID,1009.91,VALID,0,VALID,104,VALID,0,VALID,23.3043,VALID,223,VALID,0,
2014-05-28, 01:02:04,VALID,1009.93,VALID,0,VALID,104,VALID,0,VALID,23.3256,VALID,223,VALID,0,
2014-05-28, 01:03:04,VALID,1009.95,VALID,0,VALID,104,VALID,0,VALID,23.3043,VALID,223,VALID,0,
2014-05-28, 01:04:04,VALID,1009.96,VALID,0,VALID,104,VALID,0,VALID,23.2848,VALID,223,VALID,0,
2014-05-28, 01:05:04,VALID,1009.94,VALID,0,VALID,104,VALID,0,VALID,23.2848,VALID,223,VALID,0,
2014-05-28, 01:06:04,VALID,1009.97,VALID,0,VALID,104,VALID,0,VALID,23.3451,VALID,223,VALID,0,
2014-05-28, 01:07:04,VALID,1009.95,VALID,0,VALID,104,VALID,0,VALID,23.3043,VALID,220,VALID,0,
2014-05-28, 01:08:04,VALID,1009.95,VALID,0,VALID,104,VALID,0,VALID,23.3238,VALID,220,VALID,0,
2014-05-28, 01:09:04,VALID,1009.96,VALID,0,VALID,104,VALID,0,VALID,23.3043,VALID,220,VALID,0,
2014-05-28, 01:10:04,VALID,1009.92,VALID,0,VALID,104,VALID,0,VALID,23.3451,VALID,220,VALID,0,
2014-05-28, 01:11:04,VALID,1009.92,VALID,0,VALID,104,VALID,0,VALID,23.3238,VALID,220,VALID,0,
2014-05-28, 01:12:04,VALID,1009.89,VALID,0,VALID,104,VALID,0,VALID,23.3043,VALID,220,VALID,0,
2014-05-28, 01:13:04,VALID,1009.86,VALID,0,VALID,104,VALID,0,VALID,23.3043,VALID,220,VALID,0,
2014-05-28, 01:14:04,VALID,1009.82,VALID,0,VALID,104,VALID,0,VALID,23.3238,VALID,220,VALID,0,
2014-05-28, 01:15:04,VALID,1009.81,VALID,0,VALID,104,VALID,0,VALID,23.3238,VALID,220,VALID,0,
2014-05-28, 01:16:04,VALID,1009.8,VALID,0,VALID,104,VALID,0,VALID,23.3238,VALID,220,VALID,0,
2014-05-28, 01:17:04,VALID,1009.75,VALID,0,VALID,104,VALID,0,VALID,23.3043,VALID,220,VALID,0,
2014-05-28, 01:18:04,VALID,1009.75,VALID,0,VALID,104,VALID,0,VALID,23.3238,VALID,220,VALID,0,
2014-05-28, 01:19:04,VALID,1009.71,VALID,0,VALID,104,VALID,0,VALID,23.3238,VALID,220,VALID,0,
2014-05-28, 01:20:04,VALID,1009.69,VALID,0,VALID,104,VALID,0,VALID,23.3238,VALID,220,VALID,0,
2014-05-28, 01:21:04,VALID,1009.67,VALID,0,VALID,104,VALID,0,VALID,23.3433,VALID,220,VALID,0,
2014-05-28, 01:22:04,VALID,1009.64,VALID,0,VALID,104,VALID,0,VALID,23.3238,VALID,220,VALID,0,
2014-05-28, 01:23:04,VALID,1009.62,VALID,0,VALID,104,VALID,0,VALID,23.3238,VALID,220,VALID,0,
2014-05-28, 01:24:04,VALID,1009.62,VALID,0,VALID,104,VALID,0,VALID,23.3451,VALID,220,VALID,0,
2014-05-28, 01:25:04,VALID,1009.58,VALID,0,VALID,104,VALID,0,VALID,23.3433,VALID,220,VALID,0,
2014-05-28, 01:26:04,VALID,1009.56,VALID,0,VALID,104,VALID,0,VALID,23.3451,VALID,220,VALID,0,
2014-05-28, 01:27:04,VALID,1009.57,VALID,0,VALID,104,VALID,0,VALID,23.3451,VALID,220,VALID,0,
2014-05-28, 01:28:04,VALID,1009.56,VALID,0,VALID,104,VALID,0,VALID,23.3238,VALID,220,VALID,0,
2014-05-28, 01:29:04,VALID,1009.53,VALID,0,VALID,104,VALID,0,VALID,23.3238,VALID,220,VALID,0,
2014-05-28, 01:30:04,VALID,1009.51,VALID,0,VALID,104,VALID,0,VALID,23.3238,VALID,220,VALID,0,
2014-05-28, 01:31:04,VALID,1009.48,VALID,0,VALID,104,VALID,0,VALID,23.3043,VALID,220,VALID,0,
2014-05-28, 01:32:04,VALID,1009.45,VALID,0,VALID,104,VALID,0,VALID,23.3043,VALID,220,VALID,0,
2014-05-28, 01:33:04,VALID,1009.43,VALID,0,VALID,104,VALID,0,VALID,23.3238,VALID,220,VALID,0,
2014-05-28, 01:34:04,VALID,1009.41,VALID,0,VALID,104,VALID,0,VALID,23.3238,VALID,220,VALID,0,
2014-05-28, 01:35:04,VALID,1009.38,VALID,0,VALID,104,VALID,0,VALID,23.3451,VALID,220,VALID,0,
2014-05-28, 01:36:04,VALID,1009.38,VALID,0,VALID,104,VALID,0,VALID,23.3238,VALID,220,VALID,0,
2014-05-28, 01:37:04,VALID,1009.34,VALID,0,VALID,104,VALID,0,VALID,23.3238,VALID,220,VALID,0,
2014-05-28, 01:38:04,VALID,1009.35,VALID,0,VALID,104,VALID,0,VALID,23.3645,VALID,220,VALID,0,
2014-05-28, 01:39:04,VALID,1009.33,VALID,0,VALID,104,VALID,0,VALID,23.3433,VALID,220,VALID,0,
2014-05-28, 01:40:04,VALID,1009.33,VALID,0,VALID,104,VALID,0,VALID,23.3433,VALID,220,VALID,0,
2014-05-28, 01:41:04,VALID,1009.32,VALID,0,VALID,104,VALID,0.112112,VALID,23.3628,VALID,220,VALID,0,
2014-05-28, 01:42:04,VALID,1009.34,VALID,0,VALID,104,VALID,0,VALID,23.3433,VALID,220,VALID,0,
2014-05-28, 01:43:04,VALID,1009.32,VALID,0,VALID,104,VALID,0.112112,VALID,23.3628,VALID,220,VALID,0,
2014-05-28, 01:44:04,VALID,1009.33,VALID,0,VALID,104,VALID,0,VALID,23.3433,VALID,220,VALID,0,
2014-05-28, 01:45:04,VALID,1009.32,VALID,0,VALID,104,VALID,0,VALID,23.3433,VALID,220,VALID,0,
2014-05-28, 01:46:04,VALID,1009.34,VALID,0,VALID,104,VALID,0,VALID,23.3433,VALID,220,VALID,0,
2014-05-28, 01:47:04,VALID,1009.32,VALID,0,VALID,104,VALID,0,VALID,23.384,VALID,220,VALID,0,
2014-05-28, 01:48:04,VALID,1009.33,VALID,0,VALID,104,VALID,0,VALID,23.384,VALID,220,VALID,0,
2014-05-28, 01:49:04,VALID,1009.35,VALID,0,VALID,104,VALID,0,VALID,23.3628,VALID,220,VALID,0,
2014-05-28, 01:50:04,VALID,1009.38,VALID,0,VALID,104,VALID,0,VALID,23.3628,VALID,220,VALID,0,
2014-05-28, 01:51:04,VALID,1009.42,VALID,0,VALID,104,VALID,0,VALID,23.3628,VALID,220,VALID,0,
2014-05-28, 01:52:04,VALID,1009.42,VALID,0,VALID,104,VALID,0.112112,VALID,23.3823,VALID,220,VALID,0,
2014-05-28, 01:53:04,VALID,1009.43,VALID,0,VALID,104,VALID,0.112112,VALID,23.3823,VALID,220,VALID,0,
2014-05-28, 01:54:04,VALID,1009.42,VALID,0,VALID,104,VALID,0,VALID,23.3823,VALID,220,VALID,0,
2014-05-28, 01:55:04,VALID,1009.44,VALID,0,VALID,104,VALID,0,VALID,23.423,VALID,220,VALID,0,
2014-05-28, 01:56:04,VALID,1009.44,VALID,0,VALID,104,VALID,0,VALID,23.4017,VALID,220,VALID,0,
2014-05-28, 01:57:04,VALID,1009.44,VALID,0,VALID,104,VALID,0.112112,VALID,23.4017,VALID,220,VALID,0,
2014-05-28, 01:58:04,VALID,1009.47,VALID,0,VALID,104,VALID,0,VALID,23.4017,VALID,220,VALID,0,
2014-05-28, 01:59:04,VALID,1009.48,VALID,0,VALID,104,VALID,0,VALID,23.3823,VALID,220,VALID,0,
2014-05-28, 02:00:04,VALID,1009.49,VALID,0,VALID,104,VALID,0,VALID,23.3628,VALID,220,VALID,0,
2014-05-28, 02:01:04,VALID,1009.48,VALID,0,VALID,104,VALID,0.112112,VALID,23.3628,VALID,220,VALID,0,
2014-05-28, 02:02:04,VALID,1009.48,VALID,0,VALID,104,VALID,0.112112,VALID,23.3628,VALID,220,VALID,0,
2014-05-28, 02:03:04,VALID,1009.47,VALID,0,VALID,104,VALID,0.112112,VALID,23.3433,VALID,220,VALID,0,
2014-05-28, 02:04:04,VALID,1009.47,VALID,0,VALID,104,VALID,0.112112,VALID,23.3238,VALID,220,VALID,0,
2014-05-28, 02:05:04,VALID,1009.45,VALID,0,VALID,104,VALID,0,VALID,23.3238,VALID,220,VALID,0,
2014-05-28, 02:06:04,VALID,1009.44,VALID,0,VALID,104,VALID,0.112112,VALID,23.3043,VALID,220,VALID,0,
2014-05-28, 02:07:04,VALID,1009.45,VALID,0,VALID,104,VALID,0.112112,VALID,23.3043,VALID,220,VALID,0,
2014-05-28, 02:08:04,VALID,1009.46,VALID,0,VALID,104,VALID,0.112112,VALID,23.3043,VALID,220,VALID,0,
2014-05-28, 02:09:04,VALID,1009.46,VALID,0,VALID,104,VALID,0,VALID,23.2831,VALID,220,VALID,0,
2014-05-28, 02:10:04,VALID,1009.43,VALID,0,VALID,104,VALID,0,VALID,23.2848,VALID,220,VALID,0,
2014-05-28, 02:11:04,VALID,1009.44,VALID,0,VALID,104,VALID,0,VALID,23.2654,VALID,220,VALID,0,
2014-05-28, 02:12:04,VALID,1009.44,VALID,0,VALID,104,VALID,0,VALID,23.2459,VALID,220,VALID,0,
2014-05-28, 02:13:05,VALID,1009.43,VALID,0,VALID,104,VALID,0,VALID,23.2264,VALID,220,VALID,0,
2014-05-28, 02:14:05,VALID,1009.45,VALID,0,VALID,104,VALID,0,VALID,23.2264,VALID,220,VALID,0,
2014-05-28, 02:15:05,VALID,1009.48,VALID,0,VALID,104,VALID,0,VALID,23.2476,VALID,220,VALID,0,
2014-05-28, 02:16:05,VALID,1009.49,VALID,0,VALID,104,VALID,0,VALID,23.2264,VALID,220,VALID,0,
2014-05-28, 02:17:05,VALID,1009.51,VALID,0,VALID,104,VALID,0,VALID,23.2459,VALID,220,VALID,0,
2014-05-28, 02:18:05,VALID,1009.52,VALID,0,VALID,104,VALID,0,VALID,23.2654,VALID,220,VALID,0,
2014-05-28, 02:19:05,VALID,1009.53,VALID,0,VALID,104,VALID,0,VALID,23.2654,VALID,220,VALID,0,
2014-05-28, 02:20:05,VALID,1009.52,VALID,0,VALID,104,VALID,0,VALID,23.2459,VALID,220,VALID,0,
2014-05-28, 02:21:05,VALID,1009.51,VALID,0,VALID,104,VALID,0.112112,VALID,23.2459,VALID,220,VALID,0,
2014-05-28, 02:22:05,VALID,1009.49,VALID,0,VALID,104,VALID,0.112112,VALID,23.2459,VALID,220,VALID,0,
2014-05-28, 02:23:05,VALID,1009.46,VALID,0,VALID,104,VALID,0.112112,VALID,23.2459,VALID,220,VALID,0,
2014-05-28, 02:24:05,VALID,1009.46,VALID,0,VALID,104,VALID,0.112112,VALID,23.2459,VALID,220,VALID,0,
2014-05-28, 02:25:05,VALID,1009.43,VALID,0,VALID,104,VALID,0.112112,VALID,23.2476,VALID,220,VALID,0,
2014-05-28, 02:26:05,VALID,1009.41,VALID,0,VALID,104,VALID,0.112112,VALID,23.2459,VALID,220,VALID,0,
2014-05-28, 02:27:05,VALID,1009.4,VALID,0,VALID,104,VALID,0.112112,VALID,23.2264,VALID,220,VALID,0,
2014-05-28, 02:28:05,VALID,1009.36,VALID,0,VALID,104,VALID,0.112112,VALID,23.2264,VALID,220,VALID,0,
2014-05-28, 02:29:05,VALID,1009.37,VALID,0,VALID,104,VALID,0.112112,VALID,23.2264,VALID,220,VALID,0,
2014-05-28, 02:30:05,VALID,1009.35,VALID,0,VALID,104,VALID,0.112112,VALID,23.2264,VALID,220,VALID,0,
2014-05-28, 02:31:05,VALID,1009.33,VALID,0,VALID,104,VALID,0.112112,VALID,23.2069,VALID,220,VALID,0,
2014-05-28, 02:32:05,VALID,1009.31,VALID,0,VALID,104,VALID,0.112112,VALID,23.2069,VALID,220,VALID,0,
2014-05-28, 02:33:05,VALID,1009.31,VALID,0,VALID,104,VALID,0.112112,VALID,23.2069,VALID,220,VALID,0,
2014-05-28, 02:34:05,VALID,1009.26,VALID,0,VALID,104,VALID,0,VALID,23.2282,VALID,220,VALID,0,
2014-05-28, 02:35:05,VALID,1009.28,VALID,0,VALID,104,VALID,0.112112,VALID,23.1857,VALID,220,VALID,0,
2014-05-28, 02:36:05,VALID,1009.26,VALID,0,VALID,104,VALID,0.112112,VALID,23.2069,VALID,220,VALID,0,
2014-05-28, 02:37:05,VALID,1009.26,VALID,0,VALID,104,VALID,0.112112,VALID,23.2069,VALID,220,VALID,0,
2014-05-28, 02:38:05,VALID,1009.28,VALID,0,VALID,104,VALID,0,VALID,23.2069,VALID,220,VALID,0,
2014-05-28, 02:39:05,VALID,1009.26,VALID,0,VALID,104,VALID,0.112112,VALID,23.2069,VALID,220,VALID,0,
2014-05-28, 02:40:05,VALID,1009.28,VALID,0,VALID,104,VALID,0,VALID,23.2087,VALID,220,VALID,0,
2014-05-28, 02:41:05,VALID,1009.24,VALID,0,VALID,104,VALID,0,VALID,23.1679,VALID,220,VALID,0,
2014-05-28, 02:42:05,VALID,1009.25,VALID,0,VALID,104,VALID,0.112112,VALID,23.1679,VALID,220,VALID,0,
2014-05-28, 02:43:05,VALID,1009.23,VALID,0,VALID,104,VALID,0,VALID,23.129,VALID,220,VALID,0,
2014-05-28, 02:44:05,VALID,1009.23,VALID,0,VALID,104,VALID,0.112112,VALID,23.1485,VALID,220,VALID,0,
2014-05-28, 02:45:05,VALID,1009.24,VALID,0,VALID,104,VALID,0,VALID,23.1502,VALID,220,VALID,0,
2014-05-28, 02:46:05,VALID,1009.24,VALID,0,VALID,104,VALID,0,VALID,23.129,VALID,220,VALID,0,
2014-05-28, 02:47:05,VALID,1009.24,VALID,0,VALID,104,VALID,0,VALID,23.1502,VALID,220,VALID,0,
2014-05-28, 02:48:05,VALID,1009.23,VALID,0,VALID,104,VALID,0,VALID,23.1502,VALID,220,VALID,0,
2014-05-28, 02:49:05,VALID,1009.23,VALID,0,VALID,104,VALID,0,VALID,23.129,VALID,220,VALID,0,
2014-05-28, 02:50:05,VALID,1009.24,VALID,0,VALID,104,VALID,0,VALID,23.1307,VALID,220,VALID,0,
2014-05-28, 02:51:05,VALID,1009.27,VALID,0,VALID,104,VALID,0,VALID,23.1095,VALID,220,VALID,0,
2014-05-28, 02:52:05,VALID,1009.27,VALID,0,VALID,104,VALID,0,VALID,23.1095,VALID,220,VALID,0,
2014-05-28, 02:53:05,VALID,1009.28,VALID,0,VALID,104,VALID,0.112112,VALID,23.1095,VALID,220,VALID,0,
2014-05-28, 02:54:05,VALID,1009.27,VALID,0,VALID,104,VALID,0,VALID,23.09,VALID,220,VALID,0,
2014-05-28, 02:55:05,VALID,1009.25,VALID,0,VALID,104,VALID,0,VALID,23.1112,VALID,220,VALID,0,
2014-05-28, 02:56:05,VALID,1009.26,VALID,0,VALID,104,VALID,0,VALID,23.09,VALID,220,VALID,0,
2014-05-28, 02:57:05,VALID,1009.24,VALID,0,VALID,104,VALID,0,VALID,23.09,VALID,220,VALID,0,
2014-05-28, 02:58:05,VALID,1009.25,VALID,0,VALID,104,VALID,0,VALID,23.0723,VALID,220,VALID,0,
2014-05-28, 02:59:05,VALID,1009.21,VALID,0,VALID,104,VALID,0,VALID,23.0705,VALID,220,VALID,0,
2014-05-28, 03:00:05,VALID,1009.23,VALID,0,VALID,104,VALID,0,VALID,23.1112,VALID,220,VALID,0,
2014-05-28, 03:01:05,VALID,1009.23,VALID,0,VALID,104,VALID,0,VALID,23.0705,VALID,220,VALID,0,
2014-05-28, 03:02:05,VALID,1009.23,VALID,0,VALID,104,VALID,0,VALID,23.09,VALID,220,VALID,0,
2014-05-28, 03:03:05,VALID,1009.21,VALID,0,VALID,104,VALID,0,VALID,23.0705,VALID,220,VALID,0,
2014-05-28, 03:04:05,VALID,1009.19,VALID,0,VALID,104,VALID,0,VALID,23.1112,VALID,220,VALID,0,
2014-05-28, 03:05:05,VALID,1009.18,VALID,0,VALID,104,VALID,0,VALID,23.09,VALID,220,VALID,0,
2014-05-28, 03:06:05,VALID,1009.15,VALID,0,VALID,104,VALID,0,VALID,23.0705,VALID,220,VALID,0,
2014-05-28, 03:07:05,VALID,1009.13,VALID,0,VALID,104,VALID,0,VALID,23.0705,VALID,220,VALID,0,
2014-05-28, 03:08:05,VALID,1009.14,VALID,0,VALID,104,VALID,0.112112,VALID,23.09,VALID,220,VALID,0,
2014-05-28, 03:09:05,VALID,1009.13,VALID,0,VALID,104,VALID,0,VALID,23.09,VALID,220,VALID,0,
2014-05-28, 03:10:05,VALID,1009.07,VALID,0,VALID,104,VALID,0,VALID,23.0705,VALID,220,VALID,0,
2014-05-28, 03:11:05,VALID,1009.07,VALID,0,VALID,104,VALID,0.112112,VALID,23.09,VALID,220,VALID,0,
2014-05-28, 03:12:05,VALID,1009.05,VALID,0,VALID,104,VALID,0,VALID,23.1095,VALID,220,VALID,0,
2014-05-28, 03:13:05,VALID,1009.02,VALID,0,VALID,104,VALID,0,VALID,23.1112,VALID,220,VALID,0,
2014-05-28, 03:14:05,VALID,1009.04,VALID,0,VALID,104,VALID,0,VALID,23.09,VALID,220,VALID,0,
2014-05-28, 03:15:05,VALID,1009.01,VALID,0,VALID,104,VALID,0,VALID,23.09,VALID,220,VALID,0,
2014-05-28, 03:16:05,VALID,1008.99,VALID,0,VALID,104,VALID,0,VALID,23.1095,VALID,220,VALID,0,
2014-05-28, 03:17:05,VALID,1009.01,VALID,0,VALID,104,VALID,0,VALID,23.1307,VALID,220,VALID,0,
2014-05-28, 03:18:05,VALID,1009,VALID,0,VALID,104,VALID,0,VALID,23.09,VALID,220,VALID,0,
2014-05-28, 03:19:05,VALID,1008.99,VALID,0,VALID,104,VALID,0,VALID,23.0918,VALID,220,VALID,0,
2014-05-28, 03:20:05,VALID,1008.99,VALID,0,VALID,104,VALID,0,VALID,23.0705,VALID,220,VALID,0,
2014-05-28, 03:21:05,VALID,1009.01,VALID,0,VALID,104,VALID,0.112112,VALID,23.0511,VALID,220,VALID,0,
2014-05-28, 03:22:05,VALID,1009.04,VALID,0,VALID,104,VALID,0,VALID,23.0121,VALID,220,VALID,0,
2014-05-28, 03:23:05,VALID,1009.04,VALID,0,VALID,104,VALID,0,VALID,23.0138,VALID,220,VALID,0,
2014-05-28, 03:24:05,VALID,1009.05,VALID,0,VALID,104,VALID,0,VALID,22.9926,VALID,220,VALID,0,
2014-05-28, 03:25:05,VALID,1009.06,VALID,0,VALID,104,VALID,0,VALID,23.0138,VALID,220,VALID,0,
2014-05-28, 03:26:05,VALID,1009.05,VALID,0,VALID,104,VALID,0,VALID,22.9926,VALID,220,VALID,0,
2014-05-28, 03:27:05,VALID,1009.1,VALID,0,VALID,104,VALID,0,VALID,23.0138,VALID,220,VALID,0,
2014-05-28, 03:28:05,VALID,1009.06,VALID,0,VALID,104,VALID,0,VALID,23.0138,VALID,220,VALID,0,
2014-05-28, 03:29:05,VALID,1009.11,VALID,0,VALID,104,VALID,0,VALID,22.9943,VALID,220,VALID,0,
2014-05-28, 03:30:05,VALID,1009.09,VALID,0,VALID,104,VALID,0,VALID,22.9536,VALID,220,VALID,0,
2014-05-28, 03:31:05,VALID,1009.09,VALID,0,VALID,104,VALID,0,VALID,22.9342,VALID,220,VALID,0,
2014-05-28, 03:32:05,VALID,1009.13,VALID,0,VALID,104,VALID,0,VALID,22.9147,VALID,220,VALID,0,
2014-05-28, 03:33:05,VALID,1009.1,VALID,0,VALID,104,VALID,0,VALID,22.9147,VALID,220,VALID,0,
2014-05-28, 03:34:05,VALID,1009.11,VALID,0,VALID,104,VALID,0,VALID,22.8952,VALID,220,VALID,0,
2014-05-28, 03:35:05,VALID,1009.11,VALID,0,VALID,104,VALID,0,VALID,22.8757,VALID,220,VALID,0,
2014-05-28, 03:36:05,VALID,1009.1,VALID,0,VALID,104,VALID,0,VALID,22.8757,VALID,220,VALID,0,
2014-05-28, 03:37:05,VALID,1009.1,VALID,0,VALID,104,VALID,0,VALID,22.8562,VALID,220,VALID,0,
2014-05-28, 03:38:05,VALID,1009.09,VALID,0,VALID,104,VALID,0,VALID,22.8757,VALID,220,VALID,0,
2014-05-28, 03:39:05,VALID,1009.12,VALID,0,VALID,104,VALID,0,VALID,22.8969,VALID,220,VALID,0,
2014-05-28, 03:40:05,VALID,1009.14,VALID,0,VALID,104,VALID,0,VALID,22.8757,VALID,220,VALID,0,
2014-05-28, 03:41:05,VALID,1009.15,VALID,0,VALID,104,VALID,0,VALID,22.8775,VALID,220,VALID,0,
2014-05-28, 03:42:05,VALID,1009.17,VALID,0,VALID,104,VALID,0,VALID,22.8775,VALID,220,VALID,0,
2014-05-28, 03:43:05,VALID,1009.14,VALID,0,VALID,104,VALID,0,VALID,22.8368,VALID,220,VALID,0,
2014-05-28, 03:44:05,VALID,1009.16,VALID,0,VALID,104,VALID,0,VALID,22.8368,VALID,220,VALID,0,
2014-05-28, 03:45:05,VALID,1009.15,VALID,0,VALID,104,VALID,0,VALID,22.8368,VALID,220,VALID,0,
2014-05-28, 03:46:05,VALID,1009.13,VALID,0,VALID,104,VALID,0,VALID,22.8775,VALID,220,VALID,0,
2014-05-28, 03:47:05,VALID,1009.14,VALID,0,VALID,104,VALID,0,VALID,22.8952,VALID,220,VALID,0,
2014-05-28, 03:48:05,VALID,1009.14,VALID,0,VALID,104,VALID,0,VALID,22.9147,VALID,220,VALID,0,
2014-05-28, 03:49:05,VALID,1009.13,VALID,0,VALID,104,VALID,0,VALID,22.9342,VALID,220,VALID,0,
2014-05-28, 03:50:05,VALID,1009.1,VALID,0,VALID,104,VALID,0,VALID,22.9926,VALID,220,VALID,0,
2014-05-28, 03:51:05,VALID,1009.1,VALID,0,VALID,104,VALID,0,VALID,23.0511,VALID,220,VALID,0,
2014-05-28, 03:52:05,VALID,1009.09,VALID,0,VALID,104,VALID,0,VALID,23.1095,VALID,220,VALID,0,
2014-05-28, 03:53:05,VALID,1009.09,VALID,0,VALID,104,VALID,0.112112,VALID,23.129,VALID,220,VALID,0,
2014-05-28, 03:54:05,VALID,1009.09,VALID,0,VALID,104,VALID,0.112112,VALID,23.1679,VALID,220,VALID,0,
2014-05-28, 03:55:05,VALID,1009.08,VALID,0,VALID,104,VALID,0,VALID,23.1874,VALID,220,VALID,0,
2014-05-28, 03:56:05,VALID,1009.05,VALID,0,VALID,104,VALID,0,VALID,23.1874,VALID,220,VALID,0,
2014-05-28, 03:57:05,VALID,1009.04,VALID,0,VALID,104,VALID,0.112112,VALID,23.1874,VALID,220,VALID,0,
2014-05-28, 03:58:05,VALID,1009.03,VALID,0,VALID,104,VALID,0,VALID,23.2282,VALID,220,VALID,0,
2014-05-28, 03:59:05,VALID,1009.03,VALID,0,VALID,104,VALID,0,VALID,23.2069,VALID,220,VALID,0,
2014-05-28, 04:00:05,VALID,1009.03,VALID,0,VALID,104,VALID,0,VALID,23.2264,VALID,220,VALID,0,
2014-05-28, 04:01:05,VALID,1009.03,VALID,0,VALID,104,VALID,0,VALID,23.2264,VALID,220,VALID,0,
2014-05-28, 04:02:05,VALID,1009.01,VALID,0,VALID,104,VALID,0,VALID,23.2671,VALID,220,VALID,0,
2014-05-28, 04:03:05,VALID,1008.97,VALID,0,VALID,104,VALID,0,VALID,23.2654,VALID,220,VALID,0,
2014-05-28, 04:04:05,VALID,1008.96,VALID,0,VALID,104,VALID,0,VALID,23.2866,VALID,220,VALID,0,